Regional Weather Roundup
Issued by NWS

Home | Current Version | Previous Version | Graphics & Text | Print | Product List | Glossary On
Versions: 1 2 3 4 5 6 7 8 9 10 11 12 13 14 15 16 17 18 19 20 21 22 23 24 25 26 27 28 29 30 31 32 33 34 35 36 37 38 39 40 41 42 43 44 45 46 47 48 49 50
000
ASUS43 KFSD 312202
RWRSD

WEATHER ROUNDUP FOR SOUTH DAKOTA
NATIONAL WEATHER SERVICE SIOUX FALLS SD
500 PM CDT FRI OCT 31 2014

NOTE: "FAIR" INDICATES FEW OR NO CLOUDS BELOW 12,000 FEET WITH NO
SIGNIFICANT WEATHER AND/OR OBSTRUCTIONS TO VISIBILITY.


SDZ001>005-009-010-012>017-312300-
NORTHWEST AND NORTH CENTRAL SOUTH DAKOTA

CITY           SKY/WX    TMP DP  RH WIND       PRES   REMARKS
BUFFALO          N/A     49  29  46 SE26G40   29.93F
FAITH            N/A     44  14  29 SE28G41   30.11F
MOBRIDGE       MOSUNNY   42  12  29 SE28G35   30.25F
$$

SDZ012>016-024>037-041>051-057-063-072>074-312300-
SOUTHWEST AND SOUTH CENTRAL SOUTH DAKOTA

CITY           SKY/WX    TMP DP  RH WIND       PRES   REMARKS
RAPID CTY ARPT MOSUNNY   53  29  39 S29G37    30.07F
PIERRE         MOSUNNY   43  11  27 SE26G32   30.28F
CUSTER         SUNNY     44  28  53 S10G23    30.09F
ELLSWORTH AFB  MOSUNNY   53  30  41 S31G39    30.05F
PHILIP         MOSUNNY   51  16  24 SE24G32   30.18F
PINE RIDGE     SUNNY     51  26  37 S16G30    30.14F
SPEARFISH      FAIR      55  36  47 W7        29.95F
WINNER         FAIR      45  10  24 SE18G25   30.32F
$$

SDZ004>011-016>023-039-040-312300-
NORTHEAST SOUTH DAKOTA

CITY           SKY/WX    TMP DP  RH WIND       PRES   REMARKS
ABERDEEN       MOSUNNY   41  17  38 S14       30.41F
WATERTOWN      SUNNY     38  18  44 S12       30.43F
SISSETON         N/A     38  22  52 S9        30.45F
$$

SDZ017-020-022-023-036>040-048>070-312300-
SOUTHEAST SOUTH DAKOTA

CITY           SKY/WX    TMP DP  RH WIND       PRES   REMARKS
SIOUX FALLS    MOSUNNY   40  16  37 SE7       30.47S
HURON          SUNNY     38  16  40 S9        30.43F
CHAMBERLAIN    PTSUNNY   41  15  35 SE18      30.37F
MITCHELL       MOSUNNY   40  18  41 S10       30.44F
YANKTON        SUNNY     39  18  41 SE6       30.47F
$$

ABBREVIATIONS USED IN REMARKS
   TC - TEMPERATURE IN CELSIUS
  WCI - WIND CHILL INDEX
   HX - HEAT INDEX
  VSB - VISIBILITY




USA.gov is the U.S. government's official web portal to all federal, state and local government web resources and services.